Regional Weather Roundup
Issued by NWS

Home | Current Version | Previous Version | Graphics & Text | Print | Product List | Glossary On
Versions: 1 2 3 4 5 6 7 8 9 10 11 12 13 14 15 16 17 18 19 20 21 22 23 24 25 26 27 28 29 30 31 32 33 34 35 36 37 38 39 40 41 42 43 44 45 46 47 48 49 50
000
ASUS43 KFSD 190302
RWRSD

WEATHER ROUNDUP FOR SOUTH DAKOTA
NATIONAL WEATHER SERVICE SIOUX FALLS SD
900 PM CST SAT FEB 18 2017

NOTE: "FAIR" INDICATES FEW OR NO CLOUDS BELOW 12,000 FEET WITH NO
SIGNIFICANT WEATHER AND/OR OBSTRUCTIONS TO VISIBILITY.


SDZ001>005-009-010-012>017-190400-
NORTHWEST AND NORTH CENTRAL SOUTH DAKOTA

CITY           SKY/WX    TMP DP  RH WIND       PRES   REMARKS
BUFFALO          N/A     46  33  60 CALM      29.53S
FAITH            N/A     43  33  68 S7        29.60S
MOBRIDGE       CLEAR     41  33  73 SE13      29.62S
$$

SDZ012>016-024>037-041>051-057-063-072>074-190400-
SOUTHWEST AND SOUTH CENTRAL SOUTH DAKOTA

CITY           SKY/WX    TMP DP  RH WIND       PRES   REMARKS
RAPID CTY ARPT PTCLDY    50  31  48 S3        29.61R
PIERRE         CLEAR     43  33  68 E7        29.65R
CUSTER         CLOUDY    47  24  40 SW5       29.69R
ELLSWORTH AFB  PTCLDY    53  31  44 S7        29.60R
PHILIP         PTCLDY    47  33  58 E5        29.61S
PINE RIDGE     PTCLDY    49  31  49 S7        29.67R
SPEARFISH      CLOUDY    48  30  49 S14       29.63R
WINNER         FAIR      50  30  46 SE14      29.69S
$$

SDZ004>011-016>023-039-040-190400-
NORTHEAST SOUTH DAKOTA

CITY           SKY/WX    TMP DP  RH WIND       PRES   REMARKS
ABERDEEN       CLEAR     34  31  88 E5        29.73R WCI  30
WATERTOWN      CLEAR     43  36  76 SE8       29.75F
BROOKINGS      CLEAR     39  35  86 MISG      29.78S
SISSETON         N/A     40  38  93 S3        29.76R
$$

SDZ017-020-022-023-036>040-048>070-190400-
SOUTHEAST SOUTH DAKOTA

CITY           SKY/WX    TMP DP  RH WIND       PRES   REMARKS
SIOUX FALLS    CLOUDY    38  37  97 E3        29.79F
HURON          CLEAR     43  38  82 SE13      29.72S
CHAMBERLAIN    CLOUDY    43  37  80 E8        29.72R
MITCHELL       CLEAR     45  38  76 SE13      29.75S
YANKTON        CLOUDY    48  34  57 SE6       29.78S
$$

ABBREVIATIONS USED IN REMARKS
   TC - TEMPERATURE IN CELSIUS
  WCI - WIND CHILL INDEX
   HX - HEAT INDEX
  VSB - VISIBILITY





USA.gov is the U.S. government's official web portal to all federal, state and local government web resources and services.